Location: Anjeux
(47.8815°N, 6.2076°E)
Time: 23:22:21
(UTC+00:00)

ISS - Visible Passes

Search period start: 28 September 2021 00:00
Search period end: 08 October 2021 00:00
Orbit: 417 x 422 km, 51.6° (Epoch: 28 September)

Date Brightness Start Highest point End Pass type
(mag) Time Alt. Az. Time Alt. Az. Time Alt. Az.
28 Sep -3.6 19:05:29 10° WNW 19:08:50 61° NNE 19:09:10 57° NE visible
29 Sep -3.3 18:18:09 10° WNW 18:21:27 50° NNE 18:23:39 19° E visible
29 Sep -1.5 19:55:01 10° WNW 19:56:37 24° W 19:56:37 24° W visible
30 Sep -3.8 19:07:41 10° WNW 19:11:03 74° SSW 19:11:08 73° S visible
01 Oct -3.8 18:20:22 10° WNW 18:23:45 80° NNE 18:25:43 23° ESE visible
01 Oct -1.0 19:57:35 10° W 19:58:41 16° WSW 19:58:41 16° WSW visible
02 Oct -2.5 19:10:03 10° WNW 19:13:07 33° SW 19:13:20 33° SSW visible
03 Oct -3.1 18:22:38 10° WNW 18:25:55 49° SSW 18:28:04 19° SE visible
04 Oct -3.5 17:35:18 10° WNW 17:38:40 73° SSW 17:42:01 10° ESE visible
04 Oct -1.2 19:13:05 10° W 19:15:01 14° SW 19:15:54 13° SSW visible
05 Oct -1.5 18:25:15 10° W 18:27:55 22° SW 18:30:34 10° SSE visible
06 Oct -2.1 17:37:43 10° W 17:40:46 32° SW 17:43:49 10° SSE visible
